EW2825 Weather Reports


time (UTC)temp
C
wind
direction
speed
KPH
gust
KPH
rain 1hr
cm
rain 24hr
cm
rain mn
cm
humidity
%
barometer
mb
20260507000009 13 48 0.0 0.0 0.00 0.00 0.81 99 1000.2
20260506234515 13 48 0.0 0.0 0.00 0.00 0.81 99 1000.0
20260506233009 13 48 0.0 0.0 0.00 0.00 0.81 99 999.8
20260506231507 15 289 0.0 0.0 0.00 0.00 0.81 99 999.7
20260506230007 15 119 0.0 0.0 0.00 0.00 0.66 99 999.3
20260506224508 15 119 0.0 0.0 0.00 0.00 0.53 99 999.4
20260506223005 15 181 0.0 0.0 0.00 0.00 0.53 99 999.5
20260506221504 15 181 0.0 0.0 0.00 0.00 0.51 99 999.7
20260506220010 15 229 0.0 0.0 0.00 0.00 0.43 99 999.7
20260506214504 15 281 0.0 0.0 0.00 0.00 0.43 99 1000.0
20260506213003 16 316 0.0 0.0 0.00 0.00 0.41 99 1000.1
20260506211501 16 309 0.0 0.0 0.00 0.00 0.41 99 1000.2
20260506210000 15 293 1.6 0.0 0.00 0.00 0.41 98 1000.4
20260506204601 15 295 1.6 0.0 0.00 0.00 0.41 98 1000.4
20260506203100 15 307 1.6 0.0 0.00 0.00 0.41 98 1000.4
20260506201559 15 343 1.6 0.0 0.00 0.00 0.38 98 1000.5
20260506200058 15 304 3.2 0.0 0.00 0.00 0.38 98 1000.5
20260506194558 15 321 3.2 0.0 0.00 0.00 0.38 98 1000.6
20260506193057 15 164 3.2 0.0 0.00 0.00 0.38 98 1000.8
20260506191556 15 289 3.2 0.0 0.00 0.00 0.36 98 1001.1
20260506190058 15 57 1.6 0.0 0.00 0.00 0.33 98 1001.1
20260506184604 15 294 1.6 0.0 0.00 0.00 0.28 99 1001.1
20260506183054 15 306 0.0 0.0 0.00 0.00 0.23 99 1001.3
20260506181553 15 314 1.6 0.0 0.00 0.00 0.18 98 1001.6
20260506180054 15 355 0.0 0.0 0.00 0.00 0.15 98 1001.9
20260506174552 15 88 0.0 0.0 0.00 0.00 0.10 97 1002.5
20260506173105 15 88 0.0 0.0 0.00 0.00 0.08 95 1002.3
20260506171557 15 325 0.0 0.0 0.00 0.00 0.05 93 1002.4
20260506170059 15 325 0.0 0.0 0.00 0.00 0.03 90 1002.2
20260506164609 15 325 1.6 0.0 0.00 0.00 0.03 88 1002.4
20260506163052 15 157 1.6 0.0 0.00 0.00 0.03 92 1002.9
20260506161551 15 43 0.0 0.0 0.00 0.00 0.03 94 1003.3
20260506160059 15 43 0.0 0.0 0.00 0.00 0.03 95 1003.5
20260506154552 15 43 0.0 0.0 0.00 0.00 0.00 93 1003.8
20260506153046 15 43 0.0 0.0 0.00 0.00 0.00 90 1003.7
20260506151546 16 43 0.0 0.0 0.00 0.00 0.00 86 1003.9
20260506150045 16 43 0.0 0.0 0.00 0.00 0.00 85 1003.8
20260506144545 16 307 1.6 0.0 0.00 0.00 0.00 85 1003.8
20260506143043 15 110 1.6 0.0 0.00 0.00 0.00 87 1003.7
20260506141559 15 164 1.6 0.0 0.00 0.00 0.00 86 1003.8
20260506140040 15 40 1.6 0.0 0.00 0.00 0.00 90 1003.7
20260506134535 15 90 0.0 0.0 0.00 0.00 0.00 93 1003.9
20260506133032 14 252 0.0 0.0 0.00 0.00 0.00 95 1004.3
20260506131535 13 252 0.0 0.0 0.00 0.00 0.00 96 1004.3
20260506130032 13 252 0.0 0.0 0.00 0.00 0.00 97 1004.3
20260506124531 13 252 0.0 0.0 0.00 0.00 0.00 96 1004.4
20260506123038 12 252 0.0 0.0 0.00 0.00 0.00 96 1004.8
20260506121528 13 252 0.0 0.0 0.00 0.00 0.00 97 1004.8
20260506120037 13 252 0.0 0.0 0.00 0.00 0.00 97 1005.1
20260506114528 12 252 0.0 0.0 0.00 0.00 0.00 97 1005.0
20260506113028 12 252 0.0 0.0 0.00 0.00 0.00 98 1005.1
20260506111527 12 252 0.0 0.0 0.00 0.00 0.00 98 1005.0
20260506110027 12 252 0.0 0.0 0.00 0.00 0.00 98 1005.1
20260506104525 12 252 0.0 0.0 0.00 0.00 0.00 98 1005.0
20260506103030 12 252 0.0 0.0 0.00 0.00 0.00 98 1004.9
20260506101525 12 252 0.0 0.0 0.00 0.00 0.00 98 1005.0
20260506100024 12 252 0.0 0.0 0.00 0.00 0.00 98 1004.6
20260506094532 12 252 0.0 0.0 0.00 0.00 0.00 98 1004.6
20260506093039 12 252 0.0 0.0 0.00 0.00 0.00 97 1004.5
20260506091524 12 252 0.0 0.0 0.00 0.00 0.00 97 1004.7
20260506090020 12 252 0.0 0.0 0.00 0.00 0.00 97 1004.4
20260506084518 12 252 0.0 0.0 0.00 0.00 0.00 96 1004.2
20260506083016 12 252 0.0 0.0 0.00 0.00 0.00 95 1004.0
20260506081516 13 252 0.0 0.0 0.00 0.00 0.00 95 1004.0
20260506073011 13 252 0.0 0.0 0.00 0.00 0.00 99 1003.8
20260506071510 13 252 0.0 0.0 0.00 0.00 0.00 99 1003.3
20260506061508 13 252 0.0 0.0 0.00 0.00 0.00 99 1003.3
20260506044512 13 252 0.0 0.0 0.00 0.00 0.00 99 1003.4
20260506043008 13 252 0.0 0.0 0.00 0.00 0.00 98 1003.6
20260506041502 13 252 0.0 0.0 0.00 0.00 0.00 98 1003.6
20260506040005 13 252 0.0 0.0 0.00 0.00 0.00 98 1003.8
20260506034502 13 252 0.0 0.0 0.00 0.00 0.00 97 1003.8
20260506033110 13 252 0.0 0.0 0.00 0.00 0.00 97 1003.8
20260506031602 13 252 0.0 0.0 0.00 0.00 0.00 97 1003.7
20260506030113 13 252 0.0 0.0 0.00 0.00 0.08 97 1003.5
20260506024557 13 252 0.0 0.0 0.00 0.00 0.08 98 1003.4
20260506023056 13 252 0.0 0.0 0.00 0.00 0.08 98 1003.3
20260506021603 14 252 0.0 0.0 0.00 0.00 0.08 98 1003.0
20260506020055 14 252 0.0 0.0 0.00 0.00 0.08 98 1003.5
20260506014601 14 252 0.0 0.0 0.00 0.00 0.08 98 1003.6
20260506013055 14 19 0.0 0.0 0.00 0.00 0.08 97 1003.6
20260506011558 14 318 0.0 0.0 0.00 0.00 0.08 96 1003.2
20260506010058 14 318 0.0 0.0 0.00 0.00 0.08 95 1003.4
20260506004625 14 302 0.0 0.0 0.00 0.00 0.08 98 1003.4
20260506003053 14 144 0.0 0.0 0.00 0.00 0.08 98 1003.3
20260506001552 13 187 0.0 0.0 0.00 0.00 0.08 97 1002.9